Location: Newark
(36.7000°N, 45.1333°E)
Time: 16:59:49
(UTC+00:00)

LightSail 2 - Pass Details

Date: 27 January 2020
Orbit: 701 x 721 km, 24.0° (Epoch: 16 February)

Event Time Altitude Azimuth Distance (km) Brightness Sun altitude
Rises 15:26:25 0° 248° (WSW) 3,074 10.3 -13.7°
Reaches altitude 10° 15:30:04 10° 222° (SW) 2,159 8.5 -14.4°
Maximum altitude 15:32:29 13° 194° (SSW) 1,937 7.7 -14.9°
Drops below altitude 10° 15:34:54 10° 165° (SSE) 2,164 7.6 -15.4°
Enters shadow 15:38:09 - 141° (SE) 2,961 8.1 -16.0°
